Location: Skalnate Pleso
(49.1889°N, 20.2450°E)
Time: 04:28:26
(UTC+01:00)

Cosmos 2360 Rocket - Visible Passes

Search period start: 28 February 2020 00:00
Search period end: 09 March 2020 00:00
Orbit: 835 x 844 km, 71.0° (Epoch: 27 February)

Date Brightness Start Highest point End Pass type
(mag) Time Alt. Az. Time Alt. Az. Time Alt. Az.
28 Feb 5.1 00:53:45 10° NNE 00:53:45 10° NNE 00:53:46 10° NNE visible
29 Feb 4.5 05:49:29 10° N 05:53:10 17° NE 05:56:50 10° ENE visible
01 Mar 4.6 05:33:49 10° N 05:37:23 17° NE 05:40:55 10° ENE visible
02 Mar 4.6 05:18:09 10° N 05:21:35 16° NNE 05:25:01 10° ENE visible
03 Mar 5.0 01:33:03 10° N 01:33:03 10° N 01:33:08 10° N visible
03 Mar 4.7 05:02:30 10° N 05:05:48 16° NNE 05:09:06 10° ENE visible
04 Mar 5.0 01:17:23 10° N 01:17:23 10° N 01:17:37 10° N visible
04 Mar 4.7 04:46:50 10° N 04:50:01 15° NNE 04:53:10 10° ENE visible
05 Mar 5.0 01:01:40 10° N 01:01:40 10° N 01:02:03 10° N visible
05 Mar 4.7 04:31:11 10° N 04:34:13 14° NNE 04:37:15 10° ENE visible
06 Mar 5.0 00:45:56 11° N 00:45:56 11° N 00:46:27 10° N visible
06 Mar 4.8 04:15:32 10° N 04:18:26 14° NNE 04:21:19 10° ENE visible
07 Mar 5.0 00:30:08 11° N 00:30:08 11° N 00:30:51 10° N visible
07 Mar 4.8 03:59:54 10° N 04:02:38 13° NNE 04:05:22 10° ENE visible
07 Mar 5.0 22:32:33 10° NNE 22:32:33 10° NNE 22:32:33 10° NNE visible
08 Mar 5.0 00:14:16 12° NNW 00:14:16 12° NNW 00:15:14 10° N visible
08 Mar 4.9 03:44:16 10° N 03:46:50 13° NNE 03:49:25 10° NE visible
08 Mar 3.5 05:27:03 10° NNW 05:32:26 43° NE 05:37:46 10° SE visible
08 Mar 4.9 22:16:35 11° NNE 22:16:35 11° NNE 22:16:51 10° NNE visible
08 Mar 5.0 23:58:18 12° NNW 23:58:18 12° NNW 23:59:37 10° N visible
